Home > Weather > Kaohsiung > Past weeks

Flag for Taiwan Past Weather in Kaohsiung, Taiwan — Yesterday and Last 2 Weeks

Now
86 °F

Broken clouds.


Feels Like: 97 °F
Forecast: 82 / 92 °F
Wind: 7 mph from Southwest

Location: Kaohsiung International Airport

Current Time: May 28, 2016 at 8:17:47 AM

Latest Report: May 28, 2016 at 7:30 AM


Visibility: N/A

Pressure: 29.89 "Hg

Humidity: 75%

Dew Point: 77 °F

Location of KaohsiungLocation

Past Weather in Kaohsiung — Graph

°F

Kaohsiung Temperature Yesterday

Maximum temperature yesterday: 93 °F (at 12:00 PM)
Minimum temperature yesterday: 81 °F (at 4:00 AM)
Average temperature yesterday: 88 °F

High & Low Weather Summary for the Past Weeks

 TemperatureHumidityPressure
High93 °F (May 27, 12:00 PM)100% (May 15, 2:00 AM)29.98 "Hg (May 15, 2:00 AM)
Low75 °F (May 17, 3:00 AM)52% (May 19, 9:00 AM)29.71 "Hg (May 24, 1:30 PM)
Average83 °F80%29.82 "Hg
* Reported May 13 7:00 AM — May 28 7:00 AM, Kaohsiung, Weather by CustomWeather, © 2016

Note: Actual official high and low records may vary slightly from our data, if they occured in-between our weather recording intervals... More about our weather records

Advertising

Kaohsiung Weather History for the Previous 24 Hours

Scroll right to see more
 ConditionsComfort  
Time TempWeatherWind HumidityBarometerVisibility
7:00 AM
Sat, May 28
84 °FBroken clouds.3 mph79%29.89 "HgN/A
6:30 AM82 °FBroken clouds.3 mph84%29.86 "HgN/A
6:00 AM81 °FBroken clouds.7 mph89%29.86 "HgN/A
5:00 AM82 °FPartly cloudy.6 mph84%29.86 "HgN/A
4:00 AM82 °FPassing clouds.3 mph84%29.86 "HgN/A
3:00 AM86 °FPassing clouds.3 mph75%29.86 "HgN/A
2:00 AM82 °FPassing clouds.5 mph84%29.86 "HgN/A
1:00 AM82 °FPassing clouds.6 mph84%29.86 "HgN/A
12:00 AM84 °FPassing clouds.5 mph79%29.89 "HgN/A
11:30 PM
Fri, May 27
84 °FPassing clouds.2 mph79%29.89 "HgN/A
11:00 PM86 °FPassing clouds.5 mph75%29.89 "HgN/A
10:30 PM86 °FPassing clouds.5 mph75%29.89 "HgN/A
10:00 PM86 °FPassing clouds.6 mph75%29.89 "HgN/A
9:30 PM88 °FPassing clouds.5 mph70%29.89 "HgN/A
9:00 PM88 °FPassing clouds.5 mph70%29.89 "HgN/A
8:30 PM88 °FPassing clouds.5 mph70%29.89 "HgN/A
8:00 PM86 °FPassing clouds.5 mph75%29.86 "HgN/A
7:30 PM88 °FPassing clouds.3 mph70%29.86 "HgN/A
7:00 PM88 °FPassing clouds.5 mph70%29.86 "HgN/A
6:30 PM88 °FPassing clouds.7 mph70%29.83 "HgN/A
6:00 PM88 °FPassing clouds.8 mph70%29.83 "HgN/A
5:30 PM88 °FScattered clouds.7 mph70%29.83 "HgN/A
5:00 PM88 °FScattered clouds.8 mph75%29.83 "HgN/A
4:30 PM88 °FScattered clouds.10 mph75%29.83 "HgN/A
4:00 PM90 °FScattered clouds.10 mph67%29.83 "HgN/A
3:30 PM91 °FScattered clouds.10 mph63%29.83 "HgN/A
3:00 PM91 °FPassing clouds.12 mph63%29.83 "HgN/A
2:30 PM91 °FPassing clouds.12 mph59%29.83 "HgN/A
2:00 PM93 °FPassing clouds.12 mph59%29.83 "HgN/A
1:30 PM91 °FPassing clouds.12 mph59%29.83 "HgN/A
1:00 PM91 °FPassing clouds.13 mph59%29.83 "HgN/A
12:30 PM91 °FPassing clouds.14 mph63%29.86 "HgN/A
12:00 PM93 °FPassing clouds.13 mph59%29.86 "HgN/A
11:30 AM91 °FPassing clouds.14 mph67%29.86 "HgN/A
11:00 AM90 °FPassing clouds.17 mph71%29.86 "HgN/A
10:30 AM90 °FPassing clouds.17 mph75%29.86 "HgN/A
10:00 AM90 °FPassing clouds.16 mph71%29.86 "HgN/A
9:30 AM88 °FPassing clouds.16 mph75%29.86 "HgN/A
9:00 AM90 °FPassing clouds.14 mph67%29.86 "HgN/A
8:30 AM90 °FPassing clouds.13 mph67%29.86 "HgN/A
8:00 AM88 °FPassing clouds.10 mph70%29.86 "HgN/A
Weather by CustomWeather, © 2016

See weather overviewHow to use our weather pages